Location: Buisson
(44.2787°N, 4.9969°E)
Time: 07:06:25
(UTC+00:00)

Cosmos 1727 Rocket - Pass Details

Date: 18 April 2021
Orbit: 962 x 995 km, 82.9° (Epoch: 06 May)

Event Time Altitude Azimuth Distance (km) Brightness Sun altitude
Rises 03:25:26 0° 180° (S) 3,642 6.7 -14.8°
Reaches altitude 10° 03:27:55 10° 179° (S) 2,703 6.0 -14.5°
Maximum altitude 03:34:05 75° 95° (E) 1,010 4.2 -13.5°
Drops below altitude 10° 03:40:21 10° 11° (N) 2,744 6.9 -12.5°
Sets 03:42:54 0° 10° (N) 3,701 7.6 -12.1°
